EW7084 Weather Reports


Display with metric or nautical units.
time (UTC)temp
F
wind
direction
speed
MPH
gust
MPH
rain 1hr
in
rain 24hr
in
rain mn
in
humidity
%
barometer
mb
20260831053016 67 71 0.0 0.0 0.00 0.00 0.00 84 1021.0
20260831051505 67 71 0.0 0.0 0.00 0.00 0.00 84 1020.9
20260831050004 67 71 0.0 0.0 0.00 0.00 0.00 84 1021.1
20260831044503 67 71 0.0 0.0 0.00 0.00 0.00 83 1021.0
20260831043003 67 71 0.0 0.0 0.00 0.00 0.00 83 1021.1
20260831041502 68 71 0.0 0.0 0.00 0.00 0.00 83 1021.1
20260831040059 68 71 0.0 0.0 0.00 0.00 0.00 82 1020.9
20260831034600 68 71 0.0 0.0 0.00 0.00 0.00 82 1021.1
20260831033101 68 71 0.0 0.0 0.00 0.00 0.00 82 1021.0
20260831031558 68 71 0.0 0.0 0.00 0.00 0.00 81 1021.1
20260831030057 68 71 0.0 0.0 0.00 0.00 0.00 81 1021.0
20260831024557 68 71 0.0 0.0 0.00 0.00 0.00 80 1021.0
20260831023056 68 71 0.0 0.0 0.00 0.00 0.00 80 1021.1
20260831021556 68 71 0.0 0.0 0.00 0.00 0.00 79 1021.1
20260831020056 69 32 0.0 0.0 0.00 0.00 0.00 78 1021.1
20260831014555 69 32 0.0 0.0 0.00 0.00 0.00 78 1021.1
20260831013055 69 210 0.0 0.0 0.00 0.00 0.00 77 1021.0
20260831011554 69 210 1.0 4.0 0.00 0.00 0.00 77 1021.0
20260831010053 69 281 0.0 9.0 0.00 0.00 0.00 78 1020.9
20260831004554 69 159 0.0 0.0 0.00 0.00 0.00 80 1020.8
20260831003058 70 159 0.0 0.0 0.00 0.00 0.00 78 1020.4
20260831001551 70 159 0.0 0.0 0.00 0.00 0.00 77 1020.1
20260831000051 71 159 0.0 0.0 0.00 0.00 0.00 77 1019.9
20260830234600 71 159 0.0 0.0 0.00 0.00 0.00 77 1019.8
20260830233050 71 159 0.0 1.0 0.00 0.00 0.00 76 1019.8
20260830231550 71 159 0.0 1.0 0.00 0.00 0.00 76 1019.7
20260830230048 72 159 0.0 0.0 0.00 0.00 0.00 76 1019.7
20260830224553 72 159 0.0 0.0 0.00 0.00 0.00 75 1019.8
20260830223148 72 159 0.0 0.0 0.00 0.00 0.00 75 1019.6
20260830221547 72 159 0.0 3.0 0.00 0.00 0.00 75 1019.6
20260830220050 72 159 1.0 2.0 0.00 0.00 0.00 75 1019.5
20260830214558 72 159 0.0 3.0 0.00 0.00 0.00 74 1019.4
20260830213045 72 159 1.0 3.0 0.00 0.00 0.00 74 1019.6
20260830211552 72 159 0.0 5.0 0.00 0.00 0.00 73 1019.7
20260830210049 73 161 1.0 5.0 0.00 0.00 0.00 72 1019.8
20260830204544 73 294 0.0 7.0 0.00 0.00 0.00 71 1019.9
20260830203050 74 283 0.0 3.0 0.00 0.00 0.00 70 1019.7
20260830201544 75 283 0.0 3.0 0.00 0.00 0.00 71 1019.5
20260830200042 75 283 0.0 7.0 0.00 0.00 0.00 70 1019.3
20260830194542 76 162 1.0 5.0 0.00 0.00 0.00 72 1019.3
20260830193101 77 162 0.0 3.0 0.00 0.00 0.00 72 1019.3
20260830191540 78 162 0.0 2.0 0.00 0.00 0.00 67 1019.2
20260830190041 78 162 0.0 2.0 0.00 0.00 0.00 64 1019.2
20260830184539 79 162 0.0 3.0 0.00 0.00 0.00 61 1019.2
20260830183037 79 162 1.0 3.0 0.00 0.00 0.00 60 1019.2
20260830181536 79 162 2.0 5.0 0.00 0.00 0.00 59 1019.3
20260830180039 80 162 2.0 5.0 0.00 0.00 0.00 61 1019.5
20260830174540 80 160 2.0 6.0 0.00 0.00 0.00 59 1019.4
20260830173050 81 160 5.0 8.0 0.00 0.00 0.00 57 1019.7
20260830171533 80 164 0.0 8.0 0.00 0.00 0.00 57 1019.7
20260830170030 79 159 1.0 5.0 0.00 0.00 0.00 60 1019.9
20260830164525 78 215 2.0 8.0 0.00 0.00 0.00 64 1020.0
20260830163033 78 160 3.0 12.0 0.00 0.00 0.00 63 1020.3
20260830161519 76 154 4.0 10.0 0.00 0.00 0.00 66 1020.4
20260830160016 75 181 2.0 5.0 0.00 0.00 0.00 67 1020.5
20260830154518 74 165 2.0 8.0 0.00 0.00 0.00 70 1020.8
20260830153013 74 163 4.0 8.0 0.00 0.00 0.00 69 1020.8
20260830151608 72 160 0.0 0.0 0.00 0.00 0.00 70 1021.1
20260830150007 72 154 0.0 0.0 0.00 0.00 0.00 71 1021.2
20260830144502 70 161 0.0 0.0 0.00 0.00 0.00 73 1021.2
20260830143101 69 163 0.0 0.0 0.00 0.00 0.00 74 1021.1
20260830141557 69 163 0.0 0.0 0.00 0.00 0.00 73 1020.9
20260830140055 68 157 0.0 0.0 0.00 0.00 0.00 73 1020.9
20260830134551 67 157 0.0 0.0 0.00 0.00 0.00 74 1021.2
20260830133058 66 157 0.0 0.0 0.00 0.00 0.00 75 1021.2
20260830131544 65 157 0.0 0.0 0.00 0.00 0.00 78 1021.6
20260830130042 64 157 0.0 0.0 0.00 0.00 0.00 80 1021.7
20260830124543 63 157 0.0 0.0 0.00 0.00 0.00 80 1021.7
20260830123038 62 157 0.0 0.0 0.00 0.00 0.00 81 1021.8
20260830121532 61 157 0.0 0.0 0.00 0.00 0.00 85 1021.7
20260830120032 60 157 0.0 0.0 0.00 0.00 0.00 88 1021.8
20260830114527 59 157 0.0 0.0 0.00 0.00 0.00 89 1021.9
20260830113025 59 157 0.0 0.0 0.00 0.00 0.00 89 1022.2
20260830111524 58 157 0.0 0.0 0.00 0.00 0.00 88 1022.4
20260830110024 58 157 0.0 0.0 0.00 0.00 0.00 88 1022.3
20260830104523 58 157 0.0 0.0 0.00 0.00 0.00 87 1022.2
20260830103022 58 157 0.0 0.0 0.00 0.00 0.00 87 1022.3
20260830101521 58 157 0.0 0.0 0.00 0.00 0.00 87 1022.2
20260830100031 58 157 0.0 0.0 0.00 0.00 0.00 87 1022.3
20260830094519 59 157 0.0 0.0 0.00 0.00 0.00 87 1022.4
20260830093033 59 157 0.0 0.0 0.00 0.00 0.00 87 1022.7
20260830091516 59 157 0.0 0.0 0.00 0.00 0.00 87 1022.6
20260830084514 59 157 0.0 0.0 0.00 0.00 0.00 87 1022.6
20260830083014 59 157 0.0 0.0 0.00 0.00 0.00 87 1022.9
20260830081512 60 157 0.0 0.0 0.00 0.00 0.00 87 1022.9
20260830080012 59 157 0.0 0.0 0.00 0.00 0.00 87 1023.0
20260830074511 59 157 0.0 0.0 0.00 0.00 0.00 87 1023.0
20260830073011 59 157 0.0 0.0 0.00 0.00 0.00 87 1023.1
20260830071512 60 157 0.0 0.0 0.00 0.00 0.00 87 1023.0
20260830070010 60 157 0.0 0.0 0.00 0.00 0.00 88 1023.2
20260830064509 59 157 0.0 0.0 0.00 0.00 0.00 87 1023.1
20260830063008 59 157 0.0 0.0 0.00 0.00 0.00 87 1023.0
20260830061512 59 157 0.0 0.0 0.00 0.00 0.00 87 1023.0
20260830060007 59 157 0.0 0.0 0.00 0.00 0.00 87 1023.1
20260830054506 59 157 0.0 0.0 0.00 0.00 0.00 86 1023.0